Torna al catalogo

FENGYUN 3D

AttivoMeteoSSO
NORAD 43010·PAYLOAD·🇨🇳 China

Lanciato Nov 14, 2017 da Taiyuan Satellite Launch Center

Loading…

Prossimi Passaggi (prossime 24 ore)

TLE

AggiornatoSource: Space-Track

Epoca: Sep 14, 2026, 13:54 UTC

1 43010U 17072A   26257.57937263 -.00000144  00000-0 -45998-4 0  9999
2 43010  99.0238 233.6623 0002038 123.3881 236.7489 14.19753738457671

Traccia FENGYUN 3D in tempo reale con AllMySat

Download on the App Store